Regional Weather Roundup
Issued by NWS

Home | Current Version | Previous Version | Text Only | Print | Product List | Glossary On
Versions: 1 2 3 4 5 6 7 8 9 10 11 12 13 14 15 16 17 18 19 20 21 22 23 24 25 26 27 28 29 30 31 32 33 34 35 36 37 38 39 40 41 42 43 44 45 46 47 48 49 50
000
ASUS44 KFWD 210015
RWRTX
NORTH TEXAS HOURLY WEATHER ROUNDUP
NATIONAL WEATHER SERVICE FORT WORTH TX
600 PM CST FRI JAN 20 2017

NOTE: "FAIR" INDICATES FEW OR NO CLOUDS BELOW 12,000 FEET WITH NO
SIGNIFICANT WEATHER AND/OR OBSTRUCTIONS TO VISIBILITY.

TXZ118-119-210100-
DALLAS/FORT WORTH METROPLEX

CITY           SKY/WX    TMP DP  RH WIND       PRES   REMARKS
DFW AIRPORT    PTCLDY    67  38  34 S10       29.59R
6HR MIN TEMP:  66; 6HR MAX TEMP:  78;

DALLAS LOVE    PTCLDY    72  36  26 S7        29.60S
6HR MIN TEMP:  70; 6HR MAX TEMP:  77;

FTW MEACHAM    CLEAR     70  35  27 S8        29.59S
6HR MIN TEMP:  69; 6HR MAX TEMP:  77;

DAL-EXECUTIVE  CLEAR     70  40  33 S5        29.61R
6HR MIN TEMP:  69; 6HR MAX TEMP:  75;

FTW-ALLIANCE   MOCLDY    67  35  30 S3        29.59S
6HR MIN TEMP:  67; 6HR MAX TEMP:  77;

FTW-NAS-JRB    MOCLDY    69  36  29 SW13      29.60S
6HR MIN TEMP:  69; 6HR MAX TEMP:  78;

FTW-SPINKS     CLEAR     68  37  32 S6        29.62S
ARLINGTON      CLEAR     70  36  28 S5        29.61R
6HR MIN TEMP:  70; 6HR MAX TEMP:  76;

ADDISON        CLEAR     72  37  28 S8        29.61S
MESQUITE       CLEAR     64  41  42 S7        29.62S
LANCASTER      CLEAR     66  43  43 S7        29.63R
6HR MIN TEMP:  66; 6HR MAX TEMP:  74;

$$

TXZ091>094-102>105-117-120-121-131>134-210100-
NORTH CENTRAL TEXAS

CITY           SKY/WX    TMP DP  RH WIND       PRES   REMARKS
SHRMAN/DENISON CLEAR     61  43  51 S9        29.59S
6HR MIN TEMP:  61; 6HR MAX TEMP:  74;

GAINESVILLE    PTCLDY    67  35  31 SW9       29.60S
6HR MIN TEMP:  67; 6HR MAX TEMP:  74;

BOWIE          CLEAR     67  34  29 SW7       29.59R
6HR MIN TEMP:  67; 6HR MAX TEMP:  74;

BRIDGEPORT     PTCLDY    68  38  33 SW8       29.62R
6HR MIN TEMP:  68; 6HR MAX TEMP:  75;

DECATUR        PTCLDY    67  34  29 SW7       29.60S
6HR MIN TEMP:  67; 6HR MAX TEMP:  74;

DENTON         CLEAR     66  39  37 SW8       29.59R
6HR MIN TEMP:  66; 6HR MAX TEMP:  75;

MCKINNEY       CLEAR     64  40  41 S10       29.60R
6HR MIN TEMP:  64; 6HR MAX TEMP:  74;

BONHAM         CLEAR     63  43  48 S9        29.60R
GREENVILLE     CLEAR     61  41  48 S7        29.62S
ROCKWALL       CLEAR     65  44  45 S8        29.62R
6HR MIN TEMP:  65; 6HR MAX TEMP:  73;

TERRELL        CLEAR     63  45  51 S8        29.63R
6HR MIN TEMP:  63; 6HR MAX TEMP:  72;

WAXAHACHIE     CLEAR     65  44  46 S3        29.63S
6HR MIN TEMP:  65; 6HR MAX TEMP:  74;

CLEBURNE       CLEAR     68  37  32 SW7       29.65R
GRANBURY       PTCLDY    70  33  25 W8G17     29.63S
6HR MIN TEMP:  70; 6HR MAX TEMP:  77;

$$

TXZ083>090-098>101-113>116-127>130-139>142-154-155-210100-
WESTERN NORTH TEXAS

CITY           SKY/WX    TMP DP  RH WIND       PRES   REMARKS
WICHITA FALLS  PTCLDY    62  34  35 SW12      29.55R
6HR MIN TEMP:  62; 6HR MAX TEMP:  71;

WF-KICKAPOO    CLEAR     66  34  30 S8        29.57S
6HR MIN TEMP:  66; 6HR MAX TEMP:  71;

VERNON         PTCLDY    64  28  25 SW9       29.56R
6HR MIN TEMP:  33; 6HR MAX TEMP:  71;

ABILENE        CLEAR     62  32  32 SW9       29.63S
6HR MIN TEMP:  62; 6HR MAX TEMP:  70;

ABILENE-DYESS  CLEAR     60  38  45 SW8       29.62R
6HR MIN TEMP:  60; 6HR MAX TEMP:  70; 6HR PCP:  0.02;

GRAHAM         CLEAR     66  34  30 SW6       29.59R
BRECKENRIDGE   CLEAR     67  32  27 SW10      29.61S HAZE
6HR MIN TEMP:  67; 6HR MAX TEMP:  74;

CISCO          CLEAR     66  32  28 W10       29.64R
RANGER         CLEAR     64  32  29 SW5       29.64S
MINERAL WELLS  PTCLDY    64  32  30 SW8       29.60S
6HR MIN TEMP:  64; 6HR MAX TEMP:  77;

STEPHENVILLE   CLEAR     68  33  27 CALM      29.66S
6HR MIN TEMP:  68; 6HR MAX TEMP:  75;

COMANCHE       CLEAR     68  35  29 CALM      29.64F
6HR MIN TEMP:  68; 6HR MAX TEMP:  74;

BROWNWOOD      CLEAR     66  32  28 SW6       29.64F
COLEMAN        CLEAR     64  32  29 SW6       29.65S
$$

TXZ143>147-156>162-174-175-210100-
CENTRAL TEXAS

CITY           SKY/WX    TMP DP  RH WIND       PRES   REMARKS
WACO           CLEAR     62  44  51 S7        29.64S
6HR MIN TEMP:  62; 6HR MAX TEMP:  75;

WACO-TSTC      CLEAR     66  45  45 SW7       29.65S
WACO-MCGREGOR  CLEAR     68  47  46 S6        29.66R
6HR MIN TEMP:  68; 6HR MAX TEMP:  75;

HILLSBORO      CLEAR     64  48  57 S8        29.64R
6HR MIN TEMP:  64; 6HR MAX TEMP:  74;

MEXIA          CLEAR     65  43  44 S5        29.66R
6HR MIN TEMP:  65; 6HR MAX TEMP:  74;

HEARNE         CLEAR     67  57  70 SE6       29.68S
6HR MIN TEMP:  66; 6HR MAX TEMP:  72;

CAMERON        CLEAR     69  49  48 CALM      29.67S
6HR MIN TEMP:  69; 6HR MAX TEMP:  76;

TEMPLE         CLEAR     65  49  56 SE8       29.67R
6HR MIN TEMP:  65; 6HR MAX TEMP:  76;

KILLEEN        PTCLDY    70  36  28 CALM      29.65S
6HR MIN TEMP:  70; 6HR MAX TEMP:  75;

KILLEEN-SKYLRK CLEAR     68  41  37 CALM      29.67R
6HR MIN TEMP:  68; 6HR MAX TEMP:  77;

FORT HOOD      PTCLDY    71  36  28 S5        29.63S
6HR MIN TEMP:  71; 6HR MAX TEMP:  77;

GATESVILLE     CLEAR     70  37  30 CALM      29.68R
HAMILTON       CLEAR     70  36  28 CALM      29.66S
6HR MIN TEMP:  68; 6HR MAX TEMP:  76;

LAMPASAS       CLEAR     69  39  34 CALM      29.66S
6HR MIN TEMP:  68; 6HR MAX TEMP:  76;

$$

TXZ095>097-106>112-122>126-135>138-148>153-164>167-210100-
EAST TEXAS

CITY           SKY/WX    TMP DP  RH WIND       PRES   REMARKS
PARIS          CLEAR     63  41  45 S8        29.62S
6HR MIN TEMP:  63; 6HR MAX TEMP:  72;

SULPHUR SPRNGS CLEAR     67  42  39 S7        29.64S
6HR MIN TEMP:  67; 6HR MAX TEMP:  73;

MOUNT PLEASANT CLEAR     66  45  46 S8        29.64S
6HR MIN TEMP:  66; 6HR MAX TEMP:  74;

GILMER         CLOUDY    66  49  54 S7        29.65S
6HR MIN TEMP:  66; 6HR MAX TEMP:  73;

MINEOLA        CLEAR     68  43  40 S5        29.64R
TYLER          CLEAR     66  48  52 S9        29.65R
6HR MIN TEMP:  66; 6HR MAX TEMP:  73;

LONGVIEW       PTCLDY    66  54  65 S10       29.66R
6HR MIN TEMP:  66; 6HR MAX TEMP:  75;

MARSHALL       CLOUDY    66  50  56 S8        29.69R
6HR MIN TEMP:  66; 6HR MAX TEMP:  73;

ATHENS         CLEAR     64  43  45 S8        29.64S
PALESTINE      CLEAR     68  55  62 SE5       29.68S
JACKSONVILLE   PTCLDY    64  54  71 S5        29.70F
HENDERSON      PTCLDY    65  54  66 S5        29.69S
6HR MIN TEMP:  65; 6HR MAX TEMP:  73;

CENTER         CLOUDY    67  60  76 CALM      29.70S
6HR MIN TEMP:  67; 6HR MAX TEMP:  75;

NACOGDOCHES    MOCLDY    63  55  77 SE5       29.67F
6HR MIN TEMP:  63; 6HR MAX TEMP:  72;

LUFKIN         CLOUDY    64  58  80 CALM      29.68S
6HR MIN TEMP:  64; 6HR MAX TEMP:  72;

$$

SUPPLEMENTAL OBSERVATIONS (CENTRAL)

CITY           SKY/WX    TMP DP  RH WIND       PRES   REMARKS
DENISON DAM      N/A     68  36  30 S5          N/A
CADDO GRASSLND   N/A     66  41  39 S8          N/A
PAT MAYSE LAKE   N/A     64  37  36 SE10        N/A
GREENVILLE       N/A     64  39  39 S6G14       N/A
CEDAR HILL       N/A     68  39  34 S6          N/A
ATHENS           N/A     68  43  40 S6          N/A
LAKE LIMESTONE   N/A     64  52  63 S3          N/A
MCGREGOR         N/A     66  39  37 S5          N/A
T


USA.gov is the U.S. government's official web portal to all federal, state and local government web resources and services.